Home > Weather > San José de Mayo > Past weeks

Flag for Uruguay Past Weather in San José de Mayo, Uruguay — Yesterday and Last 2 Weeks

Now
55 °F

Fog.


Feels Like: 55 °F
Forecast: 57 / 69 °F
Wind: 5 mph from Southeast

Location: Carrasco

Current Time: Jul 1, 2016 at 6:54:32 AM

Latest Report: Jul 1, 2016 at 6:00 AM


Visibility: 0 mi

Pressure: 30.09 "Hg

Humidity: 100%

Dew Point: 55 °F

Location of San José de MayoLocation

Past Weather in San José de Mayo — Graph

°F

San José de Mayo Temperature Yesterday

Maximum temperature yesterday: 70 °F (at 1:00 PM)
Minimum temperature yesterday: 55 °F (at 2:00 AM)
Average temperature yesterday: 62 °F

High & Low Weather Summary for the Past Weeks

 TemperatureHumidityPressure
High70 °F (Jun 30, 1:00 PM)100% (Jun 16, 8:00 PM)30.48 "Hg (Jun 16, 8:00 PM)
Low30 °F (Jun 21, 7:00 AM)55% (Jun 17, 4:00 PM)30.09 "Hg (Jun 29, 3:00 PM)
Average51 °F88%30.24 "Hg
* Reported Jun 16 6:00 AM — Jul 1 6:00 AM, San José de Mayo, Weather by CustomWeather, © 2016

Note: Actual official high and low records may vary slightly from our data, if they occured in-between our weather recording intervals... More about our weather records

Advertising

San José de Mayo Weather History for the Previous 24 Hours

Scroll right to see more
 ConditionsComfort  
Time TempWeatherWind HumidityBarometerVisibility
6:00 AM
Fri, Jul 1
55 °FFog.5 mph100%30.09 "Hg0 mi
5:00 AM55 °FFog.6 mph100%30.12 "Hg1 mi
4:00 AM57 °FFog.5 mph100%30.12 "Hg50 mi
3:00 AM57 °FFog.7 mph100%30.12 "Hg50 mi
2:00 AM57 °FFog.7 mph100%30.12 "Hg1 mi
1:00 AM57 °FFog.7 mph100%30.12 "Hg1 mi
12:00 AM57 °FFog.5 mph100%30.15 "Hg1 mi
11:00 PM
Thu, Jun 30
57 °FFog.6 mph100%30.15 "Hg1 mi
10:00 PM59 °FFog.8 mph94%30.15 "Hg1 mi
9:00 PM61 °FFog.6 mph94%30.12 "Hg1 mi
8:00 PM63 °FOvercast.5 mph88%30.12 "HgN/A
7:00 PM63 °FOvercast.2 mph88%30.09 "HgN/A
6:00 PM64 °FFog.3 mph88%30.09 "Hg3 mi
5:00 PM66 °FClear.3 mph83%30.09 "Hg10 mi
4:00 PM70 °FSunny.No wind78%30.09 "Hg10 mi
3:00 PM70 °FSunny.3 mph73%30.09 "Hg10 mi
2:00 PM70 °FPartly sunny.6 mph73%30.12 "HgN/A
1:00 PM70 °FPartly sunny.6 mph73%30.12 "HgN/A
12:00 PM68 °FBroken clouds.7 mph78%30.15 "HgN/A
11:00 AM64 °FPartly sunny.7 mph88%30.15 "HgN/A
10:00 AM63 °FFog.5 mph94%30.15 "Hg4 mi
9:00 AM61 °FFog.5 mph94%30.12 "Hg3 mi
8:00 AM59 °FLight rain. Fog.No wind100%30.12 "Hg2 mi
7:00 AM59 °FFog.No wind94%30.12 "Hg3 mi
6:00 AM59 °FFog.No wind100%30.09 "Hg1 mi
Weather by CustomWeather, © 2016

See weather overviewHow to use our weather pages